Time,TemperatureF,DewpointF,PressureIn,WindDirection,WindDirectionDegrees,WindSpeedMPH,WindSpeedGustMPH,Humidity,HourlyPrecipIn,Conditions,Clouds,dailyrainin,SoftwareType,DateUTC
2013-02-17 00:10:00,26.1,23.6,29.61,NE,51,3.0,12.0,90,0.00,,,0.00,Wunderground v.1.15,2013-02-17 05:10:00,
2013-02-17 00:20:00,25.8,23.3,29.60,NNE,18,4.0,12.0,90,0.00,,,0.00,Wunderground v.1.15,2013-02-17 05:20:00,
2013-02-17 00:30:00,25.6,22.8,29.60,NNE,18,4.0,4.0,89,0.00,,,0.00,Wunderground v.1.15,2013-02-17 05:30:00,
2013-02-17 00:40:00,25.4,22.6,29.59,East,84,3.0,12.0,89,0.00,,,0.00,Wunderground v.1.15,2013-02-17 05:40:00,
2013-02-17 00:50:00,25.1,22.0,29.57,ENE,75,4.0,4.0,88,0.00,,,0.00,Wunderground v.1.15,2013-02-17 05:50:00,
2013-02-17 01:10:00,24.8,21.5,29.55,NE,54,4.0,4.0,87,0.00,,,0.00,Wunderground v.1.15,2013-02-17 06:10:00,
2013-02-17 01:20:00,24.8,21.2,29.56,NW,308,4.0,4.0,86,0.00,,,0.00,Wunderground v.1.15,2013-02-17 06:20:00,
2013-02-17 01:30:00,24.7,20.8,29.54,East,79,4.0,12.0,85,0.00,,,0.00,Wunderground v.1.15,2013-02-17 06:30:00,
2013-02-17 01:40:00,24.6,20.5,29.53,North,4,5.0,5.0,84,0.00,,,0.00,Wunderground v.1.15,2013-02-17 06:40:00,
2013-02-17 01:50:00,24.6,20.2,29.53,ENE,71,4.0,4.0,83,0.00,,,0.00,Wunderground v.1.15,2013-02-17 06:50:00,
2013-02-17 02:10:00,24.5,19.5,29.54,NE,45,5.0,5.0,81,0.00,,,0.00,Wunderground v.1.15,2013-02-17 07:10:00,
2013-02-17 02:20:00,24.4,19.4,29.53,NE,43,4.0,4.0,81,0.00,,,0.00,Wunderground v.1.15,2013-02-17 07:20:00,
2013-02-17 02:30:00,24.4,19.1,29.53,NNE,20,3.0,12.0,80,0.00,,,0.00,Wunderground v.1.15,2013-02-17 07:30:00,
2013-02-17 02:40:00,24.3,18.7,29.51,NE,37,4.0,12.0,79,0.00,,,0.00,Wunderground v.1.15,2013-02-17 07:40:00,
2013-02-17 02:50:00,24.2,18.3,29.50,ENE,57,4.0,12.0,78,0.00,,,0.00,Wunderground v.1.15,2013-02-17 07:50:00,
2013-02-17 03:10:00,23.9,17.7,29.49,NNE,22,5.0,5.0,77,0.00,,,0.00,Wunderground v.1.15,2013-02-17 08:10:00,
2013-02-17 03:20:00,23.8,17.6,29.49,NNE,27,4.0,12.0,77,0.00,,,0.00,Wunderground v.1.15,2013-02-17 08:20:00,
2013-02-17 03:30:00,23.6,18.0,29.48,ENE,64,4.0,12.0,79,0.00,,,0.00,Wunderground v.1.15,2013-02-17 08:30:00,
2013-02-17 03:40:00,23.1,18.1,29.48,NE,45,5.0,12.0,81,0.00,,,0.00,Wunderground v.1.15,2013-02-17 08:40:00,
2013-02-17 03:50:00,22.7,18.3,29.46,NNE,30,6.0,6.0,83,0.00,,,0.00,Wunderground v.1.15,2013-02-17 08:50:00,
2013-02-17 04:10:00,22.1,18.0,29.45,NE,38,5.0,12.0,84,0.00,,,0.00,Wunderground v.1.15,2013-02-17 09:10:00,
2013-02-17 04:20:00,21.9,18.1,29.44,East,97,5.0,5.0,85,0.00,,,0.00,Wunderground v.1.15,2013-02-17 09:20:00,
2013-02-17 04:30:00,21.8,18.0,29.44,East,82,5.0,12.0,85,0.00,,,0.00,Wunderground v.1.15,2013-02-17 09:30:00,
2013-02-17 04:40:00,21.8,18.0,29.43,ESE,106,6.0,6.0,85,0.00,,,0.00,Wunderground v.1.15,2013-02-17 09:40:00,
2013-02-17 04:50:00,21.9,18.1,29.42,SE,132,5.0,5.0,85,0.00,,,0.00,Wunderground v.1.15,2013-02-17 09:50:00,
2013-02-17 05:10:00,21.9,17.8,29.39,SSE,152,5.0,12.0,84,0.00,,,0.00,Wunderground v.1.15,2013-02-17 10:10:00,
2013-02-17 05:20:00,22.0,17.9,29.39,SE,125,6.0,6.0,84,0.00,,,0.00,Wunderground v.1.15,2013-02-17 10:20:00,
2013-02-17 05:30:00,22.1,17.7,29.38,NNW,347,6.0,6.0,83,0.00,,,0.00,Wunderground v.1.15,2013-02-17 10:30:00,
2013-02-17 05:40:00,22.0,17.9,29.36,ESE,103,5.0,5.0,84,0.00,,,0.00,Wunderground v.1.15,2013-02-17 10:40:00,
2013-02-17 05:50:00,21.9,17.8,29.36,SE,145,5.0,5.0,84,0.00,,,0.00,Wunderground v.1.15,2013-02-17 10:50:00,
2013-02-17 06:10:00,21.7,17.9,29.34,NNE,19,6.0,12.0,85,0.00,,,0.00,Wunderground v.1.15,2013-02-17 11:10:00,
2013-02-17 06:20:00,21.6,17.8,29.34,ENE,75,6.0,6.0,85,0.00,,,0.00,Wunderground v.1.15,2013-02-17 11:20:00,
2013-02-17 06:30:00,21.8,18.0,29.33,NNE,27,5.0,12.0,85,0.00,,,0.00,Wunderground v.1.15,2013-02-17 11:30:00,
2013-02-17 06:40:00,21.9,18.1,29.31,North,354,5.0,5.0,85,0.00,,,0.00,Wunderground v.1.15,2013-02-17 11:40:00,
2013-02-17 06:50:00,22.2,18.1,29.31,South,181,5.0,5.0,84,0.00,,,0.00,Wunderground v.1.15,2013-02-17 11:50:00,
2013-02-17 07:10:00,22.4,18.6,29.28,NE,34,5.0,12.0,85,0.00,,,0.00,Wunderground v.1.15,2013-02-17 12:10:00,
2013-02-17 07:20:00,22.5,18.7,29.27,ENE,58,5.0,12.0,85,0.00,,,0.00,Wunderground v.1.15,2013-02-17 12:20:00,
2013-02-17 07:30:00,22.6,18.8,29.26,East,91,5.0,12.0,85,0.00,,,0.00,Wunderground v.1.15,2013-02-17 12:30:00,
2013-02-17 07:40:00,22.7,19.1,29.26,East,88,5.0,12.0,86,0.00,,,0.00,Wunderground v.1.15,2013-02-17 12:40:00,
2013-02-17 07:50:00,22.8,19.2,29.25,SSE,152,5.0,12.0,86,0.00,,,0.00,Wunderground v.1.15,2013-02-17 12:50:00,
2013-02-17 08:20:00,23.1,19.0,29.22,NNE,25,5.0,5.0,84,0.00,,,0.00,Wunderground v.1.15,2013-02-17 13:20:00,
2013-02-17 08:30:00,23.1,18.7,29.21,East,87,5.0,12.0,83,0.00,,,0.00,Wunderground v.1.15,2013-02-17 13:30:00,
2013-02-17 08:40:00,23.2,18.8,29.20,ENE,58,4.0,4.0,83,0.00,,,0.00,Wunderground v.1.15,2013-02-17 13:40:00,
2013-02-17 08:50:00,23.5,19.1,29.18,East,101,5.0,12.0,83,0.00,,,0.00,Wunderground v.1.15,2013-02-17 13:50:00,
2013-02-17 09:10:00,23.4,19.6,29.17,ESE,120,7.0,7.0,85,0.00,,,0.00,Wunderground v.1.15,2013-02-17 14:10:00,
2013-02-17 09:20:00,23.1,19.5,29.15,NE,56,7.0,7.0,86,0.00,,,0.00,Wunderground v.1.15,2013-02-17 14:20:00,
2013-02-17 09:30:00,22.9,19.9,29.15,NE,44,6.0,12.0,88,0.00,,,0.00,Wunderground v.1.15,2013-02-17 14:30:00,
2013-02-17 09:40:00,23.0,19.7,29.14,ENE,57,6.0,6.0,87,0.00,,,0.00,Wunderground v.1.15,2013-02-17 14:40:00,
2013-02-17 09:50:00,22.9,19.9,29.13,NE,43,6.0,12.0,88,0.00,,,0.00,Wunderground v.1.15,2013-02-17 14:50:00,
2013-02-17 10:10:00,22.8,20.0,29.10,NE,53,7.0,7.0,89,0.00,,,0.00,Wunderground v.1.15,2013-02-17 15:10:00,
2013-02-17 10:20:00,22.7,19.7,29.10,East,79,8.0,8.0,88,0.00,,,0.00,Wunderground v.1.15,2013-02-17 15:20:00,
2013-02-17 10:30:00,22.9,19.9,29.09,ENE,70,7.0,14.0,88,0.00,,,0.00,Wunderground v.1.15,2013-02-17 15:30:00,
2013-02-17 10:40:00,22.9,19.6,29.09,East,86,9.0,9.0,87,0.00,,,0.00,Wunderground v.1.15,2013-02-17 15:40:00,
2013-02-17 10:50:00,22.9,19.6,29.07,NNW,348,8.0,12.0,87,0.00,,,0.00,Wunderground v.1.15,2013-02-17 15:50:00,
2013-02-17 11:10:00,23.0,19.7,29.06,NE,41,7.0,7.0,87,0.00,,,0.00,Wunderground v.1.15,2013-02-17 16:10:00,
2013-02-17 11:20:00,23.1,19.5,29.05,SSE,158,9.0,9.0,86,0.00,,,0.00,Wunderground v.1.15,2013-02-17 16:20:00,
2013-02-17 11:30:00,23.4,19.6,29.03,North,6,7.0,12.0,85,0.00,,,0.00,Wunderground v.1.15,2013-02-17 16:30:00,
2013-02-17 11:40:00,23.5,19.7,29.02,SSE,153,9.0,9.0,85,0.00,,,0.00,Wunderground v.1.15,2013-02-17 16:40:00,
2013-02-17 11:50:00,23.7,19.9,29.01,SE,128,9.0,9.0,85,0.00,,,0.00,Wunderground v.1.15,2013-02-17 16:50:00,
2013-02-17 12:10:00,23.7,19.6,28.99,NE,43,8.0,8.0,84,0.00,,,0.00,Wunderground v.1.15,2013-02-17 17:10:00,
2013-02-17 12:20:00,24.0,19.6,28.98,East,83,10.0,14.0,83,0.00,,,0.00,Wunderground v.1.15,2013-02-17 17:20:00,
2013-02-17 12:30:00,24.0,19.9,28.97,ESE,112,10.0,10.0,84,0.00,,,0.00,Wunderground v.1.15,2013-02-17 17:30:00,
2013-02-17 12:40:00,23.8,19.4,28.96,NNE,15,9.0,9.0,83,0.00,,,0.00,Wunderground v.1.15,2013-02-17 17:40:00,
2013-02-17 12:50:00,23.5,19.4,28.97,NE,38,8.0,12.0,84,0.00,,,0.00,Wunderground v.1.15,2013-02-17 17:50:00,
2013-02-17 13:10:00,22.9,18.5,28.96,ESE,119,9.0,9.0,83,0.00,,,0.00,Wunderground v.1.15,2013-02-17 18:10:00,
2013-02-17 13:20:00,22.8,18.4,28.96,ENE,72,8.0,8.0,83,0.00,,,0.00,Wunderground v.1.15,2013-02-17 18:20:00,
2013-02-17 13:30:00,22.9,18.2,28.96,East,80,8.0,18.0,82,0.00,,,0.00,Wunderground v.1.15,2013-02-17 18:30:00,
2013-02-17 13:40:00,22.9,18.2,28.96,East,89,9.0,9.0,82,0.00,,,0.00,Wunderground v.1.15,2013-02-17 18:40:00,
2013-02-17 13:50:00,22.7,18.3,28.95,NE,34,10.0,10.0,83,0.00,,,0.00,Wunderground v.1.15,2013-02-17 18:50:00,
2013-02-17 14:10:00,22.8,18.4,28.95,NNW,347,9.0,9.0,83,0.00,,,0.00,Wunderground v.1.15,2013-02-17 19:10:00,
2013-02-17 14:20:00,22.9,18.5,28.95,North,359,9.0,16.0,83,0.00,,,0.00,Wunderground v.1.15,2013-02-17 19:20:00,
2013-02-17 14:30:00,23.0,18.0,28.95,NE,49,11.0,11.0,81,0.00,,,0.00,Wunderground v.1.15,2013-02-17 19:30:00,
2013-02-17 14:40:00,23.3,18.0,28.95,ENE,64,9.0,9.0,80,0.00,,,0.00,Wunderground v.1.15,2013-02-17 19:40:00,
2013-02-17 14:50:00,23.4,17.8,28.95,ESE,115,10.0,10.0,79,0.00,,,0.00,Wunderground v.1.15,2013-02-17 19:50:00,
2013-02-17 15:10:00,23.2,17.7,28.96,NE,50,9.0,20.0,79,0.00,,,0.00,Wunderground v.1.15,2013-02-17 20:10:00,
2013-02-17 15:20:00,23.1,17.8,28.96,NNE,18,9.0,12.0,80,0.00,,,0.00,Wunderground v.1.15,2013-02-17 20:20:00,
2013-02-17 15:30:00,22.8,17.8,28.97,NNE,19,10.0,10.0,81,0.00,,,0.00,Wunderground v.1.15,2013-02-17 20:30:00,
2013-02-17 15:40:00,22.8,17.8,28.96,NE,38,8.0,8.0,81,0.00,,,0.00,Wunderground v.1.15,2013-02-17 20:40:00,
2013-02-17 15:50:00,22.7,17.5,28.97,East,101,9.0,12.0,80,0.00,,,0.00,Wunderground v.1.15,2013-02-17 20:50:00,
2013-02-17 16:10:00,22.1,17.4,28.98,NW,304,12.0,12.0,82,0.00,,,0.00,Wunderground v.1.15,2013-02-17 21:10:00,
2013-02-17 16:20:00,21.7,17.9,28.99,SE,139,8.0,8.0,85,0.00,,,0.00,Wunderground v.1.15,2013-02-17 21:20:00,
2013-02-17 16:30:00,21.4,18.4,28.99,SSE,157,8.0,8.0,88,0.00,,,0.00,Wunderground v.1.15,2013-02-17 21:30:00,
2013-02-17 16:40:00,21.2,18.5,28.99,NNE,19,5.0,12.0,89,0.00,,,0.00,Wunderground v.1.15,2013-02-17 21:40:00,
2013-02-17 16:50:00,20.8,17.8,29.00,East,96,6.0,6.0,88,0.00,,,0.00,Wunderground v.1.15,2013-02-17 21:50:00,
2013-02-17 17:10:00,21.4,16.5,29.01,East,96,9.0,16.0,81,0.00,,,0.00,Wunderground v.1.15,2013-02-17 22:10:00,
2013-02-17 17:20:00,21.7,16.5,29.03,NNE,29,11.0,11.0,80,0.00,,,0.00,Wunderground v.1.15,2013-02-17 22:20:00,
2013-02-17 17:30:00,22.0,16.8,29.02,NNE,30,8.0,8.0,80,0.00,,,0.00,Wunderground v.1.15,2013-02-17 22:30:00,
2013-02-17 17:40:00,22.2,17.0,29.03,SW,229,7.0,7.0,80,0.00,,,0.00,Wunderground v.1.15,2013-02-17 22:40:00,
2013-02-17 17:50:00,21.6,16.7,29.04,NNW,332,6.0,6.0,81,0.00,,,0.00,Wunderground v.1.15,2013-02-17 22:50:00,
2013-02-17 18:10:00,20.2,15.0,29.06,NE,49,7.0,7.0,80,0.00,,,0.00,Wunderground v.1.15,2013-02-17 23:10:00,
2013-02-17 18:20:00,19.8,14.0,29.06,ESE,108,7.0,7.0,78,0.00,,,0.00,Wunderground v.1.15,2013-02-17 23:20:00,
2013-02-17 18:30:00,19.7,13.7,29.07,SE,143,6.0,12.0,77,0.00,,,0.00,Wunderground v.1.15,2013-02-17 23:30:00,
2013-02-17 18:40:00,19.7,13.4,29.07,SW,229,6.0,6.0,76,0.00,,,0.00,Wunderground v.1.15,2013-02-17 23:40:00,
2013-02-17 18:50:00,19.6,13.6,29.08,ESE,117,6.0,12.0,77,0.00,,,0.00,Wunderground v.1.15,2013-02-17 23:50:00,
2013-02-17 19:10:00,19.3,13.6,29.09,NNW,340,6.0,12.0,78,0.00,,,0.00,Wunderground v.1.15,2013-02-18 00:10:00,
2013-02-17 19:20:00,19.3,13.6,29.09,ENE,60,7.0,12.0,78,0.00,,,0.00,Wunderground v.1.15,2013-02-18 00:20:00,
2013-02-17 19:30:00,19.3,13.9,29.09,NE,53,6.0,12.0,79,0.00,,,0.00,Wunderground v.1.15,2013-02-18 00:30:00,
2013-02-17 19:40:00,19.3,13.9,29.09,NNW,338,6.0,12.0,79,0.00,,,0.00,Wunderground v.1.15,2013-02-18 00:40:00,
2013-02-17 19:50:00,19.4,13.9,29.10,NE,50,6.0,14.0,79,0.00,,,0.00,Wunderground v.1.15,2013-02-18 00:50:00,
2013-02-17 20:10:00,19.8,13.2,29.11,East,86,5.0,5.0,75,0.00,,,0.00,Wunderground v.1.15,2013-02-18 01:10:00,
2013-02-17 20:20:00,20.0,13.0,29.11,NNE,20,6.0,6.0,74,0.00,,,0.00,Wunderground v.1.15,2013-02-18 01:20:00,
2013-02-17 20:30:00,20.2,12.6,29.12,North,8,6.0,12.0,72,0.00,,,0.00,Wunderground v.1.15,2013-02-18 01:30:00,
2013-02-17 20:40:00,20.4,12.2,29.12,SW,236,6.0,6.0,70,0.00,,,0.00,Wunderground v.1.15,2013-02-18 01:40:00,
2013-02-17 20:50:00,20.5,11.6,29.13,East,86,6.0,6.0,68,0.00,,,0.00,Wunderground v.1.15,2013-02-18 01:50:00,
2013-02-17 21:10:00,20.7,11.8,29.15,ESE,105,6.0,6.0,68,0.00,,,0.00,Wunderground v.1.15,2013-02-18 02:10:00,
2013-02-17 21:20:00,20.9,11.7,29.15,ESE,103,6.0,6.0,67,0.00,,,0.00,Wunderground v.1.15,2013-02-18 02:20:00,
2013-02-17 21:30:00,21.0,11.8,29.16,East,85,5.0,12.0,67,0.00,,,0.00,Wunderground v.1.15,2013-02-18 02:30:00,
2013-02-17 21:40:00,20.9,11.3,29.16,ENE,58,5.0,5.0,66,0.00,,,0.00,Wunderground v.1.15,2013-02-18 02:40:00,
2013-02-17 21:50:00,20.7,10.8,29.16,NE,49,6.0,6.0,65,0.00,,,0.00,Wunderground v.1.15,2013-02-18 02:50:00,
2013-02-17 22:10:00,20.3,10.4,29.17,ENE,78,6.0,6.0,65,0.00,,,0.00,Wunderground v.1.15,2013-02-18 03:10:00,
2013-02-17 22:20:00,20.3,10.7,29.18,SE,128,5.0,5.0,66,0.00,,,0.00,Wunderground v.1.15,2013-02-18 03:20:00,
2013-02-17 22:30:00,20.4,10.8,29.18,North,349,5.0,12.0,66,0.00,,,0.00,Wunderground v.1.15,2013-02-18 03:30:00,
2013-02-17 22:40:00,20.4,10.8,29.19,ENE,71,4.0,4.0,66,0.00,,,0.00,Wunderground v.1.15,2013-02-18 03:40:00,
2013-02-17 22:50:00,20.3,10.4,29.20,East,101,4.0,12.0,65,0.00,,,0.00,Wunderground v.1.15,2013-02-18 03:50:00,
2013-02-17 23:10:00,20.1,10.2,29.21,East,84,4.0,4.0,65,0.00,,,0.00,Wunderground v.1.15,2013-02-18 04:10:00,
2013-02-17 23:20:00,20.0,10.1,29.21,ENE,64,5.0,5.0,65,0.00,,,0.00,Wunderground v.1.15,2013-02-18 04:20:00,
2013-02-17 23:30:00,20.0,10.5,29.21,NW,321,4.0,12.0,66,0.00,,,0.00,Wunderground v.1.15,2013-02-18 04:30:00,
2013-02-17 23:40:00,20.0,10.1,29.22,NE,53,5.0,12.0,65,0.00,,,0.00,Wunderground v.1.15,2013-02-18 04:40:00,
2013-02-17 23:50:00,19.9,9.7,29.23,SSE,149,4.0,4.0,64,0.00,,,0.00,Wunderground v.1.15,2013-02-18 04:50:00,